Location: Alphen
(52.1351°N, 4.6549°E)
Time: 00:53:02
(UTC+00:00)

Cosmos 1184 Rocket - Pass Details

Date: 27 January 2021
Orbit: 404 x 416 km, 81.2° (Epoch: 26 February)

Event Time Altitude Azimuth Distance (km) Brightness Sun altitude
Rises 06:11:31 0° 350° (N) 2,373 6.3 -11.8°
Reaches altitude 10° 06:13:35 10° 354° (N) 1,506 5.4 -11.5°
Maximum altitude 06:16:49 57° 75° (ENE) 500 3.4 -11.0°
Drops below altitude 10° 06:20:02 10° 155° (SSE) 1,498 6.2 -10.6°
Sets 06:22:05 0° 160° (SSE) 2,357 7.1 -10.3°
